User: anonymous   Login
Location: Unspecified
(0.0000°N, 0.0000°E)
Time: 16:31:24
(UTC+00:00)
Language:

NOAA 9 - Orbit

View from above orbital plane
View from above orbital plane
View from above satellite
View from above satellite

Ground track
Ground track

The orbit data is extracted from the following two-line orbital elements,

1 15427U 84123A   17204.93162958 -.00000021 +00000-0 +11540-4 0  9993
2 15427 098.8045 148.4790 0014152 211.7817 190.0236 14.16004523683349
Epoch (UTC): 23 July 2017 22:21:32
Eccentricity: 0.0014152
inclination: 98.8045°
perigee height: 828 km
apogee height: 849 km
right ascension of ascending node: 148.4790°
argument of perigee: 211.7817°
revolutions per day: 14.16004523
mean anomaly at epoch: 190.0236°
orbit number at epoch: 68334

The dashed part of the orbit path shows where the satellite is in the earth's shadow,  

DLR